Time,TemperatureF,DewpointF,PressureIn,WindDirection,WindDirectionDegrees,WindSpeedMPH,WindSpeedGustMPH,Humidity,HourlyPrecipIn,Conditions,Clouds,dailyrainin,SoftwareType,DateUTC
2013-04-04 01:00:00,36.4,29.4,30.11,SSW,201,0.0,-999.0,65,0.00,,,0.00,Custom/Perl,2013-04-04 06:00:00,
2013-04-04 01:01:00,36.5,29.5,30.11,SSW,201,0.0,-999.0,65,0.00,,,0.00,Custom/Perl,2013-04-04 06:01:00,
2013-04-04 01:02:00,36.6,29.6,30.11,SSW,201,0.0,-999.0,65,0.00,,,0.00,Custom/Perl,2013-04-04 06:02:00,
2013-04-04 01:08:00,36.7,29.7,30.11,SSW,201,0.0,-999.0,65,0.00,,,0.00,Custom/Perl,2013-04-04 06:08:00,
2013-04-04 01:13:00,36.2,29.8,30.11,SSW,201,0.0,-999.0,68,0.00,,,0.00,Custom/Perl,2013-04-04 06:13:00,
2013-04-04 01:18:00,36.3,29.3,30.11,SSW,201,0.0,-999.0,65,0.00,,,0.00,Custom/Perl,2013-04-04 06:18:00,
2013-04-04 01:24:00,36.1,29.9,30.11,SSW,201,0.0,-999.0,69,0.00,,,0.00,Custom/Perl,2013-04-04 06:24:00,
2013-04-04 01:29:00,35.6,29.6,30.11,SSW,201,0.0,-999.0,70,0.00,,,0.00,Custom/Perl,2013-04-04 06:29:00,
2013-04-04 01:35:00,35.0,29.0,30.11,SSW,201,0.0,-999.0,70,0.00,,,0.00,Custom/Perl,2013-04-04 06:35:00,
2013-04-04 01:40:00,34.4,28.8,30.11,SSW,201,0.0,-999.0,72,0.00,,,0.00,Custom/Perl,2013-04-04 06:40:00,
2013-04-04 01:45:00,33.8,29.0,30.11,SSW,201,0.0,-999.0,76,0.00,,,0.00,Custom/Perl,2013-04-04 06:45:00,
2013-04-04 01:51:00,33.7,28.3,30.11,SSW,201,0.0,-999.0,73,0.00,,,0.00,Custom/Perl,2013-04-04 06:51:00,
2013-04-04 01:56:00,33.9,28.3,30.11,SSW,202,0.0,-999.0,72,0.00,,,0.00,Custom/Perl,2013-04-04 06:56:00,
2013-04-04 02:02:00,33.9,28.3,30.10,SSW,201,0.0,-999.0,72,0.00,,,0.00,Custom/Perl,2013-04-04 07:02:00,
2013-04-04 02:07:00,34.1,28.3,30.10,SSW,202,0.0,-999.0,71,0.00,,,0.00,Custom/Perl,2013-04-04 07:07:00,
2013-04-04 02:12:00,34.2,28.4,30.10,SSW,202,0.0,-999.0,71,0.00,,,0.00,Custom/Perl,2013-04-04 07:12:00,
2013-04-04 02:18:00,34.1,28.7,30.10,SSW,201,0.0,-999.0,73,0.00,,,0.00,Custom/Perl,2013-04-04 07:18:00,
2013-04-04 02:23:00,34.0,28.6,30.10,SSW,202,0.0,-999.0,73,0.00,,,0.00,Custom/Perl,2013-04-04 07:23:00,
2013-04-04 02:28:00,34.2,28.4,30.10,SSW,202,0.0,-999.0,71,0.00,,,0.00,Custom/Perl,2013-04-04 07:28:00,
2013-04-04 02:34:00,34.4,28.2,30.10,SSW,202,0.0,-999.0,69,0.00,,,0.00,Custom/Perl,2013-04-04 07:34:00,
2013-04-04 02:39:00,34.7,28.9,30.10,SSW,202,0.0,-999.0,71,0.00,,,0.00,Custom/Perl,2013-04-04 07:39:00,
2013-04-04 02:44:00,34.8,29.6,30.10,SSW,201,0.0,-999.0,74,0.00,,,0.00,Custom/Perl,2013-04-04 07:44:00,
2013-04-04 02:49:00,34.8,29.4,30.10,SSW,201,0.0,-999.0,73,0.00,,,0.00,Custom/Perl,2013-04-04 07:49:00,
2013-04-04 04:34:00,37.1,30.9,30.08,SSW,202,0.0,-999.0,69,0.00,,,0.00,Custom/Perl,2013-04-04 09:34:00,
2013-04-04 04:39:00,37.1,30.5,30.08,SSW,201,0.0,-999.0,67,0.00,,,0.00,Custom/Perl,2013-04-04 09:39:00,
2013-04-04 04:44:00,37.1,30.1,30.08,SSW,201,0.0,-999.0,65,0.00,,,0.00,Custom/Perl,2013-04-04 09:44:00,
2013-04-04 04:50:00,37.1,30.1,30.08,SSW,202,0.0,-999.0,65,0.00,,,0.00,Custom/Perl,2013-04-04 09:50:00,
2013-04-04 04:55:00,37.2,30.2,30.08,SSW,202,0.0,-999.0,65,0.00,,,0.00,Custom/Perl,2013-04-04 09:55:00,
2013-04-04 05:01:00,37.1,30.1,30.08,SSW,202,0.0,-999.0,65,0.00,,,0.00,Custom/Perl,2013-04-04 10:01:00,
2013-04-04 05:07:00,36.9,29.7,30.08,SSW,202,0.0,-999.0,64,0.00,,,0.00,Custom/Perl,2013-04-04 10:07:00,
2013-04-04 05:12:00,37.0,29.6,30.08,SSW,202,0.0,-999.0,63,0.00,,,0.00,Custom/Perl,2013-04-04 10:12:00,
2013-04-04 06:25:00,35.7,29.1,30.07,NW,314,0.0,-999.0,67,0.00,,,0.00,Custom/Perl,2013-04-04 11:25:00,
2013-04-04 06:31:00,35.4,29.0,30.08,NW,314,0.0,-999.0,68,0.00,,,0.00,Custom/Perl,2013-04-04 11:31:00,
2013-04-04 06:36:00,35.1,28.9,30.08,NW,314,0.0,-999.0,69,0.00,,,0.00,Custom/Perl,2013-04-04 11:36:00,
2013-04-04 06:41:00,35.0,29.0,30.08,NW,311,1.0,-999.0,70,0.00,,,0.00,Custom/Perl,2013-04-04 11:41:00,
2013-04-04 06:47:00,35.2,29.2,30.08,North,9,0.0,-999.0,70,0.00,,,0.00,Custom/Perl,2013-04-04 11:47:00,
2013-04-04 06:52:00,35.4,29.4,30.08,WNW,303,0.0,-999.0,70,0.00,,,0.00,Custom/Perl,2013-04-04 11:52:00,
2013-04-04 06:57:00,35.6,29.6,30.08,NW,310,0.0,-999.0,70,0.00,,,0.00,Custom/Perl,2013-04-04 11:57:00,
2013-04-04 07:03:00,35.7,29.9,30.08,NW,313,1.0,-999.0,71,0.00,,,0.00,Custom/Perl,2013-04-04 12:03:00,
2013-04-04 07:08:00,35.9,30.1,30.08,NW,326,0.0,-999.0,71,0.00,,,0.00,Custom/Perl,2013-04-04 12:08:00,
2013-04-04 07:13:00,36.0,30.0,30.08,NW,319,1.0,-999.0,70,0.00,,,0.00,Custom/Perl,2013-04-04 12:13:00,
2013-04-04 07:19:00,36.0,30.0,30.08,NW,323,0.0,-999.0,70,0.00,,,0.00,Custom/Perl,2013-04-04 12:19:00,
2013-04-04 07:24:00,36.0,30.2,30.08,NNW,330,0.0,-999.0,71,0.00,,,0.00,Custom/Perl,2013-04-04 12:24:00,
2013-04-04 07:30:00,35.9,30.1,30.08,NNW,329,0.0,-999.0,71,0.00,,,0.00,Custom/Perl,2013-04-04 12:30:00,
2013-04-04 07:35:00,35.7,29.9,30.08,NNW,329,0.0,-999.0,71,0.00,,,0.00,Custom/Perl,2013-04-04 12:35:00,
2013-04-04 07:40:00,35.5,29.9,30.08,NW,309,0.0,-999.0,72,0.00,,,0.00,Custom/Perl,2013-04-04 12:40:00,
2013-04-04 07:45:00,35.4,29.8,30.08,SSW,206,0.0,-999.0,72,0.00,,,0.00,Custom/Perl,2013-04-04 12:45:00,
2013-04-04 07:50:00,35.1,29.5,30.08,SSW,206,0.0,-999.0,72,0.00,,,0.00,Custom/Perl,2013-04-04 12:50:00,
2013-04-04 07:56:00,34.8,29.2,30.08,SSW,206,0.0,-999.0,72,0.00,,,0.00,Custom/Perl,2013-04-04 12:56:00,
2013-04-04 08:01:00,34.8,29.2,30.08,SSW,206,0.0,-999.0,72,0.00,,,0.00,Custom/Perl,2013-04-04 13:01:00,
2013-04-04 08:07:00,34.9,29.5,30.08,SSW,206,0.0,-999.0,73,0.00,,,0.00,Custom/Perl,2013-04-04 13:07:00,
2013-04-04 08:12:00,34.9,29.5,30.08,SSW,206,0.0,-999.0,73,0.00,,,0.00,Custom/Perl,2013-04-04 13:12:00,
2013-04-04 08:17:00,35.1,29.5,30.08,SSW,206,0.0,-999.0,72,0.00,,,0.00,Custom/Perl,2013-04-04 13:17:00,
2013-04-04 08:23:00,35.3,29.7,30.08,SSW,206,0.0,-999.0,72,0.00,,,0.00,Custom/Perl,2013-04-04 13:23:00,
2013-04-04 08:28:00,35.6,30.0,30.08,SSW,206,0.0,-999.0,72,0.00,,,0.00,Custom/Perl,2013-04-04 13:28:00,
2013-04-04 08:33:00,36.4,30.8,30.08,NW,323,0.0,-999.0,72,0.00,,,0.00,Custom/Perl,2013-04-04 13:33:00,
2013-04-04 08:38:00,37.4,31.6,30.08,North,10,0.0,-999.0,71,0.00,,,0.00,Custom/Perl,2013-04-04 13:38:00,
2013-04-04 08:44:00,38.4,32.0,30.08,NNW,340,0.0,-999.0,68,0.00,,,0.00,Custom/Perl,2013-04-04 13:44:00,
2013-04-04 08:49:00,39.2,32.2,30.07,NW,321,1.0,-999.0,65,0.00,,,0.00,Custom/Perl,2013-04-04 13:49:00,
2013-04-04 08:54:00,39.9,32.5,30.07,NNW,345,1.0,-999.0,63,0.00,,,0.00,Custom/Perl,2013-04-04 13:54:00,
2013-04-04 09:00:00,40.6,32.8,30.07,NNW,340,0.0,-999.0,61,0.00,,,0.00,Custom/Perl,2013-04-04 14:00:00,
2013-04-04 09:05:00,41.1,32.9,30.07,NW,311,2.0,-999.0,59,0.00,,,0.00,Custom/Perl,2013-04-04 14:05:00,
2013-04-04 09:12:00,41.8,33.0,30.07,NW,322,1.0,-999.0,56,0.00,,,0.00,Custom/Perl,2013-04-04 14:12:00,
2013-04-04 09:17:00,42.3,33.5,30.07,NNW,327,0.0,-999.0,56,0.00,,,0.00,Custom/Perl,2013-04-04 14:17:00,
2013-04-04 09:22:00,42.9,33.9,30.07,WSW,249,1.0,-999.0,55,0.00,,,0.00,Custom/Perl,2013-04-04 14:22:00,
2013-04-04 09:28:00,43.2,33.6,30.07,NNW,346,2.0,-999.0,52,0.00,,,0.00,Custom/Perl,2013-04-04 14:28:00,
2013-04-04 09:33:00,43.5,33.7,30.07,East,82,2.0,-999.0,51,0.00,,,0.00,Custom/Perl,2013-04-04 14:33:00,
2013-04-04 09:38:00,43.9,34.1,30.07,NW,311,1.0,-999.0,51,0.00,,,0.00,Custom/Perl,2013-04-04 14:38:00,
2013-04-04 09:43:00,44.5,34.7,30.07,NW,307,1.0,-999.0,51,0.00,,,0.00,Custom/Perl,2013-04-04 14:43:00,
2013-04-04 09:48:00,45.1,34.7,30.07,NW,305,2.0,-999.0,48,0.00,,,0.00,Custom/Perl,2013-04-04 14:48:00,
2013-04-04 09:54:00,45.5,35.1,30.07,NW,318,5.0,-999.0,48,0.00,,,0.00,Custom/Perl,2013-04-04 14:54:00,
2013-04-04 09:59:00,46.0,35.0,30.07,NW,322,5.0,-999.0,45,0.00,,,0.00,Custom/Perl,2013-04-04 14:59:00,
2013-04-04 10:04:00,46.3,35.3,30.07,NNW,331,5.0,-999.0,45,0.00,,,0.00,Custom/Perl,2013-04-04 15:04:00,
2013-04-04 10:09:00,46.3,35.1,30.07,NNW,335,3.0,-999.0,44,0.00,,,0.00,Custom/Perl,2013-04-04 15:09:00,
2013-04-04 10:15:00,46.6,35.4,30.06,NW,317,3.0,-999.0,44,0.00,,,0.00,Custom/Perl,2013-04-04 15:15:00,
2013-04-04 10:20:00,47.1,35.7,30.06,WSW,245,1.0,-999.0,43,0.00,,,0.00,Custom/Perl,2013-04-04 15:20:00,
2013-04-04 10:25:00,47.9,36.7,30.07,NNW,337,6.0,-999.0,44,0.00,,,0.00,Custom/Perl,2013-04-04 15:25:00,
2013-04-04 10:30:00,48.2,36.4,30.07,WNW,302,2.0,-999.0,41,0.00,,,0.00,Custom/Perl,2013-04-04 15:30:00,
2013-04-04 10:36:00,48.7,36.7,30.07,NW,316,2.0,-999.0,40,0.00,,,0.00,Custom/Perl,2013-04-04 15:36:00,
2013-04-04 10:42:00,48.9,36.7,30.07,NW,314,4.0,-999.0,39,0.00,,,0.00,Custom/Perl,2013-04-04 15:42:00,
2013-04-04 10:47:00,49.1,36.5,30.07,NNW,338,1.0,-999.0,37,0.00,,,0.00,Custom/Perl,2013-04-04 15:47:00,
2013-04-04 10:52:00,49.3,37.3,30.07,WSW,240,2.0,-999.0,40,0.00,,,0.00,Custom/Perl,2013-04-04 15:52:00,
2013-04-04 10:58:00,49.5,36.7,30.07,NNW,328,5.0,-999.0,36,0.00,,,0.00,Custom/Perl,2013-04-04 15:58:00,
2013-04-04 11:03:00,49.5,36.9,30.07,NNW,335,2.0,-999.0,37,0.00,,,0.00,Custom/Perl,2013-04-04 16:03:00,
2013-04-04 11:09:00,49.9,37.7,30.06,WSW,255,2.0,-999.0,39,0.00,,,0.00,Custom/Perl,2013-04-04 16:09:00,
2013-04-04 11:14:00,50.8,38.6,30.06,NW,325,3.0,-999.0,39,0.00,,,0.00,Custom/Perl,2013-04-04 16:14:00,
2013-04-04 11:19:00,51.3,39.1,30.06,North,358,2.0,-999.0,39,0.00,,,0.00,Custom/Perl,2013-04-04 16:19:00,
2013-04-04 11:24:00,51.4,39.4,30.06,NNW,338,1.0,-999.0,40,0.00,,,0.00,Custom/Perl,2013-04-04 16:24:00,
2013-04-04 11:29:00,52.1,39.9,30.06,NE,34,2.0,-999.0,39,0.00,,,0.00,Custom/Perl,2013-04-04 16:29:00,
2013-04-04 11:35:00,52.3,39.7,30.06,SW,231,0.0,-999.0,37,0.00,,,0.00,Custom/Perl,2013-04-04 16:35:00,
2013-04-04 11:40:00,52.8,40.2,30.06,NNW,345,1.0,-999.0,37,0.00,,,0.00,Custom/Perl,2013-04-04 16:40:00,
2013-04-04 11:46:00,52.9,40.3,30.06,SSW,204,2.0,-999.0,37,0.00,,,0.00,Custom/Perl,2013-04-04 16:46:00,
2013-04-04 11:52:00,53.1,40.7,30.05,NNE,19,4.0,-999.0,38,0.00,,,0.00,Custom/Perl,2013-04-04 16:52:00,
2013-04-04 11:57:00,53.4,41.4,30.05,NNE,16,2.0,-999.0,40,0.00,,,0.00,Custom/Perl,2013-04-04 16:57:00,
2013-04-04 12:02:00,53.9,41.5,30.05,ENE,58,1.0,-999.0,38,0.00,,,0.00,Custom/Perl,2013-04-04 17:02:00,
2013-04-04 12:07:00,54.2,41.8,30.05,WNW,293,2.0,-999.0,38,0.00,,,0.00,Custom/Perl,2013-04-04 17:07:00,
2013-04-04 12:12:00,54.4,42.0,30.04,NW,322,2.0,-999.0,38,0.00,,,0.00,Custom/Perl,2013-04-04 17:12:00,
2013-04-04 12:17:00,54.3,41.7,30.04,WNW,296,1.0,-999.0,37,0.00,,,0.00,Custom/Perl,2013-04-04 17:17:00,
2013-04-04 12:23:00,54.3,42.1,30.04,NW,326,2.0,-999.0,39,0.00,,,0.00,Custom/Perl,2013-04-04 17:23:00,
2013-04-04 12:28:00,54.7,42.5,30.04,NW,306,0.0,-999.0,39,0.00,,,0.00,Custom/Perl,2013-04-04 17:28:00,
2013-04-04 12:33:00,55.3,43.3,30.04,NW,317,3.0,-999.0,40,0.00,,,0.00,Custom/Perl,2013-04-04 17:33:00,
2013-04-04 12:39:00,55.5,43.3,30.04,WNW,288,4.0,-999.0,39,0.00,,,0.00,Custom/Perl,2013-04-04 17:39:00,
2013-04-04 12:44:00,55.3,43.3,30.03,NW,315,2.0,-999.0,40,0.00,,,0.00,Custom/Perl,2013-04-04 17:44:00,
2013-04-04 12:49:00,55.0,43.2,30.03,North,352,1.0,-999.0,41,0.00,,,0.00,Custom/Perl,2013-04-04 17:49:00,
2013-04-04 12:54:00,55.3,43.3,30.03,NW,316,2.0,-999.0,40,0.00,,,0.00,Custom/Perl,2013-04-04 17:54:00,
2013-04-04 12:59:00,56.0,44.2,30.02,WNW,297,3.0,-999.0,41,0.00,,,0.00,Custom/Perl,2013-04-04 17:59:00,
2013-04-04 13:05:00,55.8,44.0,30.02,NW,324,3.0,-999.0,41,0.00,,,0.00,Custom/Perl,2013-04-04 18:05:00,
2013-04-04 13:10:00,56.5,44.5,30.02,NW,310,3.0,-999.0,40,0.00,,,0.00,Custom/Perl,2013-04-04 18:10:00,
2013-04-04 13:15:00,57.1,45.1,30.03,NNE,25,3.0,-999.0,40,0.00,,,0.00,Custom/Perl,2013-04-04 18:15:00,
2013-04-04 13:20:00,57.4,45.2,30.02,NNE,20,3.0,-999.0,39,0.00,,,0.00,Custom/Perl,2013-04-04 18:20:00,
2013-04-04 13:26:00,57.5,45.3,30.02,NW,307,3.0,-999.0,39,0.00,,,0.00,Custom/Perl,2013-04-04 18:26:00,
2013-04-04 13:31:00,58.1,45.7,30.02,NNE,18,4.0,-999.0,38,0.00,,,0.00,Custom/Perl,2013-04-04 18:31:00,
2013-04-04 13:37:00,58.2,45.6,30.02,NW,314,3.0,-999.0,37,0.00,,,0.00,Custom/Perl,2013-04-04 18:37:00,
2013-04-04 13:42:00,58.0,45.8,30.02,NNW,328,4.0,-999.0,39,0.00,,,0.00,Custom/Perl,2013-04-04 18:42:00,
2013-04-04 13:47:00,58.8,46.0,30.01,NNW,327,2.0,-999.0,36,0.00,,,0.00,Custom/Perl,2013-04-04 18:47:00,
2013-04-04 13:52:00,59.4,46.4,30.01,NW,323,2.0,-999.0,35,0.00,,,0.00,Custom/Perl,2013-04-04 18:52:00,
2013-04-04 13:58:00,58.9,45.7,30.00,WNW,298,1.0,-999.0,34,0.00,,,0.00,Custom/Perl,2013-04-04 18:58:00,
2013-04-04 14:03:00,58.8,46.2,30.00,NNW,338,5.0,-999.0,37,0.00,,,0.00,Custom/Perl,2013-04-04 19:03:00,
2013-04-04 14:08:00,59.2,46.4,30.00,NW,317,2.0,-999.0,36,0.00,,,0.00,Custom/Perl,2013-04-04 19:08:00,
2013-04-04 14:14:00,59.3,46.1,30.00,NW,321,0.0,-999.0,34,0.00,,,0.00,Custom/Perl,2013-04-04 19:14:00,
2013-04-04 14:19:00,59.3,46.1,29.99,NW,319,1.0,-999.0,34,0.00,,,0.00,Custom/Perl,2013-04-04 19:19:00,
2013-04-04 14:24:00,59.5,46.1,29.99,NNE,19,1.0,-999.0,33,0.00,,,0.00,Custom/Perl,2013-04-04 19:24:00,
2013-04-04 14:29:00,60.1,46.5,29.99,North,1,1.0,-999.0,32,0.00,,,0.00,Custom/Perl,2013-04-04 19:29:00,
2013-04-04 14:35:00,60.9,47.5,29.99,North,352,1.0,-999.0,33,0.00,,,0.00,Custom/Perl,2013-04-04 19:35:00,
2013-04-04 14:40:00,61.6,47.6,29.99,NW,310,2.0,-999.0,30,0.00,,,0.00,Custom/Perl,2013-04-04 19:40:00,
2013-04-04 14:45:00,60.9,47.3,29.98,West,263,2.0,-999.0,32,0.00,,,0.00,Custom/Perl,2013-04-04 19:45:00,
2013-04-04 14:51:00,61.5,47.7,29.98,ENE,72,4.0,-999.0,31,0.00,,,0.00,Custom/Perl,2013-04-04 19:51:00,
2013-04-04 14:56:00,62.2,48.4,29.98,NW,310,3.0,-999.0,31,0.00,,,0.00,Custom/Perl,2013-04-04 19:56:00,
2013-04-04 15:02:00,61.6,47.8,29.98,NNW,333,1.0,-999.0,31,0.00,,,0.00,Custom/Perl,2013-04-04 20:02:00,
2013-04-04 15:07:00,61.9,47.9,29.97,South,180,1.0,-999.0,30,0.00,,,0.00,Custom/Perl,2013-04-04 20:07:00,
2013-04-04 15:12:00,62.7,48.9,29.97,NNE,30,2.0,-999.0,31,0.00,,,0.00,Custom/Perl,2013-04-04 20:12:00,
2013-04-04 15:17:00,62.6,48.2,29.97,North,11,1.0,-999.0,28,0.00,,,0.00,Custom/Perl,2013-04-04 20:17:00,
2013-04-04 15:23:00,62.6,48.6,29.97,NNW,327,3.0,-999.0,30,0.00,,,0.00,Custom/Perl,2013-04-04 20:23:00,
2013-04-04 15:28:00,62.4,48.0,29.97,NNW,338,6.0,-999.0,28,0.00,,,0.00,Custom/Perl,2013-04-04 20:28:00,
2013-04-04 15:33:00,62.5,48.3,29.97,NNW,327,2.0,-999.0,29,0.00,,,0.00,Custom/Perl,2013-04-04 20:33:00,
2013-04-04 15:38:00,63.0,49.4,29.96,WNW,297,3.0,-999.0,32,0.00,,,0.00,Custom/Perl,2013-04-04 20:38:00,
2013-04-04 15:44:00,63.0,48.6,29.96,NW,323,1.0,-999.0,28,0.00,,,0.00,Custom/Perl,2013-04-04 20:44:00,
2013-04-04 15:49:00,63.5,49.7,29.96,NW,307,1.0,-999.0,31,0.00,,,0.00,Custom/Perl,2013-04-04 20:49:00,
2013-04-04 15:55:00,63.2,49.2,29.96,NW,308,2.0,-999.0,30,0.00,,,0.00,Custom/Perl,2013-04-04 20:55:00,
2013-04-04 16:00:00,63.0,49.0,29.96,WSW,256,2.0,-999.0,30,0.00,,,0.00,Custom/Perl,2013-04-04 21:00:00,
2013-04-04 16:05:00,62.9,48.9,29.96,NNW,327,1.0,-999.0,30,0.00,,,0.00,Custom/Perl,2013-04-04 21:05:00,
2013-04-04 16:11:00,63.4,49.2,29.95,SSW,203,0.0,-999.0,29,0.00,,,0.00,Custom/Perl,2013-04-04 21:11:00,
2013-04-04 16:16:00,64.0,49.8,29.95,SW,231,2.0,-999.0,29,0.00,,,0.00,Custom/Perl,2013-04-04 21:16:00,
2013-04-04 16:21:00,64.2,50.2,29.95,West,275,0.0,-999.0,30,0.00,,,0.00,Custom/Perl,2013-04-04 21:21:00,
2013-04-04 16:27:00,65.0,51.4,29.95,North,4,1.0,-999.0,32,0.00,,,0.00,Custom/Perl,2013-04-04 21:27:00,
2013-04-04 16:32:00,65.1,51.3,29.95,NW,323,2.0,-999.0,31,0.00,,,0.00,Custom/Perl,2013-04-04 21:32:00,
2013-04-04 16:37:00,64.3,50.5,29.95,NNW,328,2.0,-999.0,31,0.00,,,0.00,Custom/Perl,2013-04-04 21:37:00,
2013-04-04 16:43:00,64.6,50.8,29.95,NNW,327,1.0,-999.0,31,0.00,,,0.00,Custom/Perl,2013-04-04 21:43:00,
2013-04-04 16:48:00,64.6,50.4,29.95,NNE,20,1.0,-999.0,29,0.00,,,0.00,Custom/Perl,2013-04-04 21:48:00,
2013-04-04 16:53:00,64.4,50.2,29.95,NW,311,0.0,-999.0,29,0.00,,,0.00,Custom/Perl,2013-04-04 21:53:00,
2013-04-04 16:58:00,64.5,50.3,29.95,NNW,346,6.0,-999.0,29,0.00,,,0.00,Custom/Perl,2013-04-04 21:58:00,
2013-04-04 17:04:00,64.4,50.2,29.94,NNW,343,2.0,-999.0,29,0.00,,,0.00,Custom/Perl,2013-04-04 22:04:00,
2013-04-04 17:09:00,64.4,50.0,29.94,West,270,2.0,-999.0,28,0.00,,,0.00,Custom/Perl,2013-04-04 22:09:00,
2013-04-04 17:14:00,64.8,50.6,29.94,NW,313,0.0,-999.0,29,0.00,,,0.00,Custom/Perl,2013-04-04 22:14:00,
2013-04-04 17:19:00,65.4,51.4,29.94,West,264,1.0,-999.0,30,0.00,,,0.00,Custom/Perl,2013-04-04 22:19:00,
2013-04-04 17:24:00,66.4,51.8,29.94,NW,317,1.0,-999.0,27,0.00,,,0.00,Custom/Perl,2013-04-04 22:24:00,
2013-04-04 17:30:00,65.7,51.3,29.94,NNW,327,2.0,-999.0,28,0.00,,,0.00,Custom/Perl,2013-04-04 22:30:00,
2013-04-04 17:35:00,65.1,50.9,29.94,NW,323,3.0,-999.0,29,0.00,,,0.00,Custom/Perl,2013-04-04 22:35:00,
2013-04-04 17:41:00,65.3,51.1,29.94,WSW,248,0.0,-999.0,29,0.00,,,0.00,Custom/Perl,2013-04-04 22:41:00,
2013-04-04 17:46:00,65.8,51.4,29.94,SSW,200,1.0,-999.0,28,0.00,,,0.00,Custom/Perl,2013-04-04 22:46:00,
2013-04-04 17:51:00,66.9,52.5,29.94,NW,326,0.0,-999.0,28,0.00,,,0.00,Custom/Perl,2013-04-04 22:51:00,
2013-04-04 17:57:00,65.9,51.5,29.94,North,352,1.0,-999.0,28,0.00,,,0.00,Custom/Perl,2013-04-04 22:57:00,
2013-04-04 18:02:00,65.5,51.3,29.94,NW,317,1.0,-999.0,29,0.00,,,0.00,Custom/Perl,2013-04-04 23:02:00,
2013-04-04 18:07:00,65.8,51.8,29.94,West,272,0.0,-999.0,30,0.00,,,0.00,Custom/Perl,2013-04-04 23:07:00,
2013-04-04 18:12:00,66.3,51.7,29.94,NW,309,1.0,-999.0,27,0.00,,,0.00,Custom/Perl,2013-04-04 23:12:00,
2013-04-04 18:18:00,66.1,51.5,29.94,NW,310,0.0,-999.0,27,0.00,,,0.00,Custom/Perl,2013-04-04 23:18:00,
2013-04-04 18:37:00,65.9,51.5,29.94,NNW,327,0.0,-999.0,28,0.00,,,0.00,Custom/Perl,2013-04-04 23:37:00,
2013-04-04 18:42:00,65.9,51.5,29.94,NW,308,0.0,-999.0,28,0.00,,,0.00,Custom/Perl,2013-04-04 23:42:00,
2013-04-04 18:47:00,65.3,51.1,29.94,NW,315,0.0,-999.0,29,0.00,,,0.00,Custom/Perl,2013-04-04 23:47:00,
2013-04-04 19:00:00,65.7,51.5,29.94,SW,219,1.0,-999.0,29,0.00,,,0.00,Custom/Perl,2013-04-05 00:00:00,
2013-04-04 19:05:00,65.4,51.2,29.94,SSE,156,0.0,-999.0,29,0.00,,,0.00,Custom/Perl,2013-04-05 00:05:00,
2013-04-04 19:11:00,65.2,51.0,29.94,South,189,2.0,-999.0,29,0.00,,,0.00,Custom/Perl,2013-04-05 00:11:00,
2013-04-04 19:16:00,64.7,50.7,29.94,SSE,160,0.0,-999.0,30,0.00,,,0.00,Custom/Perl,2013-04-05 00:16:00,
2013-04-04 19:22:00,64.7,50.7,29.94,SSE,160,0.0,-999.0,30,0.00,,,0.00,Custom/Perl,2013-04-05 00:22:00,
2013-04-04 19:27:00,64.1,50.1,29.94,SSE,160,0.0,-999.0,30,0.00,,,0.00,Custom/Perl,2013-04-05 00:27:00,
2013-04-04 19:32:00,63.3,49.5,29.94,SSE,154,0.0,-999.0,31,0.00,,,0.00,Custom/Perl,2013-04-05 00:32:00,
2013-04-04 19:38:00,62.1,48.5,29.94,SSE,150,0.0,-999.0,32,0.00,,,0.00,Custom/Perl,2013-04-05 00:38:00,
2013-04-04 19:43:00,61.0,48.0,29.94,SSE,150,0.0,-999.0,35,0.00,,,0.00,Custom/Perl,2013-04-05 00:43:00,
2013-04-04 19:48:00,59.8,47.6,29.94,SSE,150,0.0,-999.0,39,0.00,,,0.00,Custom/Perl,2013-04-05 00:48:00,
2013-04-04 19:54:00,57.9,45.7,29.94,SSE,150,0.0,-999.0,39,0.00,,,0.00,Custom/Perl,2013-04-05 00:54:00,
2013-04-04 20:00:00,56.7,45.3,29.94,SSE,150,0.0,-999.0,43,0.00,,,0.00,Custom/Perl,2013-04-05 01:00:00,
2013-04-04 20:05:00,55.5,44.7,29.94,SSE,150,0.0,-999.0,46,0.00,,,0.00,Custom/Perl,2013-04-05 01:05:00,
2013-04-04 20:10:00,54.4,43.8,29.94,SSE,150,0.0,-999.0,47,0.00,,,0.00,Custom/Perl,2013-04-05 01:10:00,
2013-04-04 20:15:00,53.5,42.9,29.94,SSE,150,0.0,-999.0,47,0.00,,,0.00,Custom/Perl,2013-04-05 01:15:00,
2013-04-04 20:20:00,52.7,42.9,29.95,SSE,150,0.0,-999.0,51,0.00,,,0.00,Custom/Perl,2013-04-05 01:20:00,
2013-04-04 20:26:00,51.8,41.8,29.95,SSE,150,0.0,-999.0,50,0.00,,,0.00,Custom/Perl,2013-04-05 01:26:00,
2013-04-04 20:32:00,51.3,41.3,29.95,SSE,150,0.0,-999.0,50,0.00,,,0.00,Custom/Perl,2013-04-05 01:32:00,
2013-04-04 20:37:00,50.8,40.8,29.95,SSE,150,0.0,-999.0,50,0.00,,,0.00,Custom/Perl,2013-04-05 01:37:00,
2013-04-04 20:42:00,50.3,40.7,29.95,SSE,150,0.0,-999.0,52,0.00,,,0.00,Custom/Perl,2013-04-05 01:42:00,
2013-04-04 20:48:00,49.6,40.6,29.95,SSE,150,0.0,-999.0,55,0.00,,,0.00,Custom/Perl,2013-04-05 01:48:00,
2013-04-04 20:53:00,49.0,40.4,29.95,SSE,150,0.0,-999.0,57,0.00,,,0.00,Custom/Perl,2013-04-05 01:53:00,
2013-04-04 20:59:00,48.4,39.4,29.95,SSE,150,0.0,-999.0,55,0.00,,,0.00,Custom/Perl,2013-04-05 01:59:00,
2013-04-04 21:04:00,47.9,39.3,29.96,SSE,150,0.0,-999.0,57,0.00,,,0.00,Custom/Perl,2013-04-05 02:04:00,
2013-04-04 21:09:00,47.8,38.8,29.96,SSE,150,0.0,-999.0,55,0.00,,,0.00,Custom/Perl,2013-04-05 02:09:00,
2013-04-04 21:14:00,47.6,39.4,29.96,SSE,150,0.0,-999.0,59,0.00,,,0.00,Custom/Perl,2013-04-05 02:14:00,
2013-04-04 21:20:00,46.9,38.9,29.96,SSE,150,0.0,-999.0,60,0.00,,,0.00,Custom/Perl,2013-04-05 02:20:00,
2013-04-04 21:25:00,46.4,38.6,29.96,SSE,150,0.0,-999.0,61,0.00,,,0.00,Custom/Perl,2013-04-05 02:25:00,
2013-04-04 21:31:00,45.9,38.1,29.96,SSE,150,0.0,-999.0,61,0.00,,,0.00,Custom/Perl,2013-04-05 02:31:00,
2013-04-04 21:36:00,45.3,37.7,29.96,SSE,150,0.0,-999.0,62,0.00,,,0.00,Custom/Perl,2013-04-05 02:36:00,
2013-04-04 21:41:00,44.9,37.5,29.96,SSE,150,0.0,-999.0,63,0.00,,,0.00,Custom/Perl,2013-04-05 02:41:00,
2013-04-04 21:46:00,44.5,37.3,29.97,SSE,150,0.0,-999.0,64,0.00,,,0.00,Custom/Perl,2013-04-05 02:46:00,
2013-04-04 21:52:00,44.2,37.0,29.97,SSE,150,0.0,-999.0,64,0.00,,,0.00,Custom/Perl,2013-04-05 02:52:00,
2013-04-04 21:57:00,43.7,36.7,29.97,SSE,150,0.0,-999.0,65,0.00,,,0.00,Custom/Perl,2013-04-05 02:57:00,
2013-04-04 22:02:00,43.3,36.5,29.97,SSE,150,0.0,-999.0,66,0.00,,,0.00,Custom/Perl,2013-04-05 03:02:00,
2013-04-04 22:08:00,43.0,36.2,29.97,SSE,150,0.0,-999.0,66,0.00,,,0.00,Custom/Perl,2013-04-05 03:08:00,
2013-04-04 22:13:00,42.8,36.4,29.97,SSE,150,0.0,-999.0,68,0.00,,,0.00,Custom/Perl,2013-04-05 03:13:00,
2013-04-04 22:18:00,42.7,36.3,29.97,SSE,150,0.0,-999.0,68,0.00,,,0.00,Custom/Perl,2013-04-05 03:18:00,
2013-04-04 22:23:00,42.4,36.2,29.97,SSE,150,0.0,-999.0,69,0.00,,,0.00,Custom/Perl,2013-04-05 03:23:00,
2013-04-04 22:29:00,42.1,35.9,29.97,SSE,150,0.0,-999.0,69,0.00,,,0.00,Custom/Perl,2013-04-05 03:29:00,
2013-04-04 22:34:00,42.0,36.0,29.97,SSE,150,0.0,-999.0,70,0.00,,,0.00,Custom/Perl,2013-04-05 03:34:00,
2013-04-04 22:39:00,41.9,35.9,29.97,SSE,150,0.0,-999.0,70,0.00,,,0.00,Custom/Perl,2013-04-05 03:39:00,
2013-04-04 22:45:00,41.6,35.8,29.97,SSE,150,0.0,-999.0,71,0.00,,,0.00,Custom/Perl,2013-04-05 03:45:00,
2013-04-04 22:50:00,41.3,35.5,29.97,SSE,150,0.0,-999.0,71,0.00,,,0.00,Custom/Perl,2013-04-05 03:50:00,
2013-04-04 22:55:00,41.3,35.5,29.97,SSE,150,0.0,-999.0,71,0.00,,,0.00,Custom/Perl,2013-04-05 03:55:00,
2013-04-04 23:00:00,41.1,35.3,29.97,SSE,150,0.0,-999.0,71,0.00,,,0.00,Custom/Perl,2013-04-05 04:00:00,
2013-04-04 23:01:00,41.1,35.3,29.97,SSE,150,0.0,-999.0,71,0.00,,,0.00,Custom/Perl,2013-04-05 04:01:00,
2013-04-04 23:02:00,41.1,35.5,29.97,SSE,150,0.0,-999.0,72,0.00,,,0.00,Custom/Perl,2013-04-05 04:02:00,
2013-04-04 23:04:00,41.0,35.4,29.97,SSE,150,0.0,-999.0,72,0.00,,,0.00,Custom/Perl,2013-04-05 04:04:00,
2013-04-04 23:09:00,40.9,35.1,29.97,SSE,150,0.0,-999.0,71,0.00,,,0.00,Custom/Perl,2013-04-05 04:09:00,
2013-04-04 23:14:00,40.9,34.9,29.97,SSE,150,0.0,-999.0,70,0.00,,,0.00,Custom/Perl,2013-04-05 04:14:00,
2013-04-04 23:19:00,41.1,35.3,29.98,SSE,150,0.0,-999.0,71,0.00,,,0.00,Custom/Perl,2013-04-05 04:19:00,
2013-04-04 23:24:00,41.5,35.5,29.98,SSE,150,0.0,-999.0,70,0.00,,,0.00,Custom/Perl,2013-04-05 04:24:00,
2013-04-04 23:30:00,42.0,35.8,29.98,SSE,150,0.0,-999.0,69,0.00,,,0.00,Custom/Perl,2013-04-05 04:30:00,
2013-04-04 23:35:00,43.1,36.5,29.98,SSE,160,0.0,-999.0,67,0.00,,,0.00,Custom/Perl,2013-04-05 04:35:00,
2013-04-04 23:40:00,44.4,37.4,29.98,SSE,160,0.0,-999.0,65,0.00,,,0.00,Custom/Perl,2013-04-05 04:40:00,
2013-04-04 23:45:00,45.1,37.9,29.98,SSW,203,0.0,-999.0,64,0.00,,,0.00,Custom/Perl,2013-04-05 04:45:00,
2013-04-04 23:52:00,45.5,38.1,29.98,SSW,198,0.0,-999.0,63,0.00,,,0.00,Custom/Perl,2013-04-05 04:52:00,
2013-04-04 23:57:00,45.7,38.3,29.98,SSW,198,0.0,-999.0,63,0.00,,,0.00,Custom/Perl,2013-04-05 04:57:00,